Starlink 32467

operational
NORAD ID: 61713 Int'l Des: 2024-196 Owner: SPXS Country: US Constellation: starlink
LEOCIRCULAR

Starlink 32467について

説明を読み込み中...

リアルタイム位置

3D地球を読み込み中...

次回通過

高度履歴

Altitude vs Time

uPlot chart will show altitude changes over time

軌道要素

1 61713U 24196G 25305.48847723 .00001312 00000-0 56428-4 0 9994
2 61713 53.1617 337.1655 0001319 89.5001 270.6151 15.30198378 57526
Epoch: Nov 1, 2025 • Age: 26 hours

現在のステータス

高度 475.9 km
速度 7.63 km/s
衛星直下点 26.72°N, 113.5°W
打ち上げ日 Oct 30, 2024
運用期間 1 years
タイプ internet

技術仕様

分類 Payload
質量 730.00 kg
乾燥質量 700.00 kg
総質量 730.00 kg
長さ 0.30 m
直径 4.10 m
スパン 29.00 m
形状 Box + pan
製造者 SPXS
バスタイプ Starlink V2M
フェーズステータス In Orbit
所有者/国 SPXS/US

大規模コンステレーション

Loading constellations...